Temperature
18 18 18 18 18 17 18 19 19 19 19 19 19 18 17 16 16 15 15 14 14 13 13 13 13 12 12 12 12 12 12 12 12 12 12 12 11 11 11 11 11 11 11 11
18 17 17 17 17 17 17 18 18 18 18 19 18 17 16 16 15 15 14 14 13 13 13 12 12 12 12 12 12 12 12 12 12 12 11 11 11 11 11 11 11 11 11 11
18 17 17 17 18 17 17 17 18 18 18 18 17 17 16 15 15 14 14 13 13 13 12 12 12 12 12 12 12 11 11 11 11 11 11 11 11 11 10 10 10 10 10 10
17 17 16 18 17 17 17 17 17 17 17 17 17 16 15 14 14 14 13 13 12 12 12 12 12 12 11 11 11 11 11 11 11 11 11 10 10 10 10 10 10 10 10 10
16 17 17 17 17 16 16 16 17 17 16 16 15 15 15 14 13 13 12 12 12 12 11 11 11 11 11 11 11 11 10 10 10 10 10 10 10 10 10 9 9 9 9 9
16 16 16 17 16 15 16 16 16 16 16 15 15 16 16 13 12 12 12 12 11 11 11 11 11 11 11 10 10 10 10 10 10 10 10 10 9 9 9 9 9 9 9 9
16 16 17 17 15 15 15 16 15 14 14 14 15 15 14 12 12 11 11 11 11 11 11 10 10 10 10 10 10 10 9 9 9 9 9 9 9 9 9 9 8 8 8 9
16 15 16 15 14 15 16 15 14 14 13 13 13 12 12 11 11 11 11 10 10 10 10 10 10 10 10 9 9 9 9 9 9 9 9 9 9 8 8 8 8 8 8 8
16 16 15 14 14 14 13 13 13 13 12 12 12 12 11 11 11 11 10 10 10 10 10 10 9 9 9 9 9 8 8 8 8 8 8 8 8 8 8 8 8 8 8 8
14 15 14 13 13 12 12 12 12 12 11 11 11 11 11 10 10 10 10 10 9 9 9 9 9 9 9 8 8 8 8 8 8 8 8 8 8 8 7 7 7 7 7 7
14 14 13 13 12 12 11 11 11 11 11 11 11 10 10 10 10 10 9 9 9 9 8 9 9 8 8 8 8 8 8 7 7 7 7 7 7 7 7 7 7 7 7 7
14 14 14 14 13 12 11 11 11 11 11 10 10 10 10 9 9 9 9 9 8 8 8 8 8 8 8 8 8 7 7 7 7 7 7 7 7 7 7 7 7 7 7 6
13 13 12 12 12 11 11 11 11 10 10 10 10 10 9 9 9 9 8 8 8 8 8 8 8 8 8 8 7 7 7 7 7 6 6 6 6 6 6 6 6 6 6 6
11 11 11 11 11 11 11 10 10 10 10 10 10 9 9 9 9 8 8 8 8 8 8 8 8 8 8 7 7 7 7 7 6 6 6 6 6 6 6 6 6 6 6 6
11 11 11 11 10 10 10 10 10 9 9 9 9 9 9 8 8 8 8 8 8 7 7 7 7 7 7 7 7 6 6 6 6 6 6 6 6 6 6 6 5 5 5 5
10 10 10 10 10 10 10 9 9 9 9 9 9 9 8 8 8 8 8 7 7 7 7 7 7 7 7 6 6 6 6 6 6 6 5 5 5 5 5 5 5 5 5 5
10 10 9 9 9 9 9 9 9 9 9 8 8 8 8 7 7 7 7 7 7 7 7 7 6 6 6 6 6 6 5 5 5 5 5 5 5 5 5 5 5 5 5 5
10 10 10 9 9 9 9 8 8 8 8 8 8 7 7 7 7 7 7 7 6 6 6 6 6 6 6 6 5 5 5 5 5 5 5 5 5 5 5 5 4 4 4 4
9 9 9 9 8 8 8 8 8 8 8 8 7 7 7 7 6 6 6 6 6 6 6 6 6 6 5 5 5 5 5 5 4 4 4 4 4 4 4 4 4 4 4 4
8 8 8 8 8 8 8 7 7 7 7 7 7 7 6 6 6 6 6 6 5 5 5 5 5 5 5 5 5 5 5 4 4 4 4 4 4 4 4 4 4 4 4 4
8 8 8 8 8 7 7 7 7 7 7 7 7 6 6 6 6 6 6 5 5 5 5 5 5 5 5 4 4 4 4 4 4 4 4 4 3 3 3 3 3 3 3 3
7 7 7 7 7 7 7 7 7 7 6 6 6 6 6 6 6 6 5 5 5 5 5 4 4 4 4 4 4 4 4 4 4 4 4 3 3 3 3 3 3 3 3 3
7 7 7 7 7 6 6 6 6 6 6 6 6 6 5 5 5 5 5 5 5 5 4 4 4 4 4 4 4 3 3 3 3 3 3 3 3 3 2 2 2 2 2 2
6 6 6 6 6 6 6 6 6 6 6 6 5 5 5 5 5 5 5 5 4 4 4 4 4 4 3 3 3 3 3 3 3 3 3 3 2 2 2 2 2 2 2 1
6 6 6 6 6 5 5 5 5 5 5 5 5 5 5 5 5 5 4 4 4 4 4 3 3 3 3 3 3 3 3 3 2 2 2 2 2 2 1 1 1 1 1 1
5 5 5 5 5 5 5 5 5 5 5 5 5 5 4 4 4 4 4 4 3 3 3 3 3 3 2 2 2 2 2 2 2 2 2 1 1 1 1 1 1 1 1 0
5 5 5 5 5 5 5 4 4 4 4 4 4 4 4 4 4 3 3 3 3 3 3 3 2 2 2 2 2 2 2 2 1 1 1 1 1 1 1 1 1 0 0 -0
Wind_Speed
8 7 7 9 10 10 12 13 13 13 13 11 8 7 6 5 4 4 4 4 3 3 3 2 2 3 3 2 2 2 3 4 4 4 5 5 5 5 5 4 5 5 5 5
8 7 8 11 12 12 12 12 13 14 14 9 7 6 6 5 5 5 4 4 4 4 3 3 3 4 3 3 3 3 4 4 4 4 5 5 5 5 4 4 4 4 5 5
8 5 8 10 10 11 10 10 11 13 11 7 7 7 7 6 5 5 5 5 5 5 5 5 4 4 4 4 3 4 4 4 4 5 5 5 5 4 4 4 4 5 5 5
6 6 9 3 1 4 8 10 9 10 9 7 7 6 6 6 5 6 5 5 5 5 5 5 5 4 4 4 4 4 4 4 4 5 5 5 5 4 5 4 4 4 5 5
5 8 9 6 4 4 6 8 6 8 8 6 4 5 6 5 5 5 5 5 5 6 5 4 4 4 4 4 4 4 4 4 5 5 5 5 5 5 5 5 4 4 5 5
7 8 7 3 1 2 5 7 3 4 5 5 4 6 5 4 5 5 5 4 4 4 4 4 3 3 3 3 4 4 4 5 5 5 5 6 6 5 5 5 5 5 5 5
11 9 7 2 1 2 6 4 2 4 5 5 6 6 5 4 4 4 4 4 3 3 3 3 3 3 3 3 4 4 4 4 4 4 5 5 5 5 5 5 5 5 5 5
8 9 7 3 3 5 5 5 5 5 5 5 5 5 4 4 4 3 3 3 3 2 2 3 3 3 3 3 3 3 3 3 3 4 4 4 5 5 5 5 5 5 5 4
7 6 4 4 5 5 5 6 6 5 5 5 6 5 5 5 5 4 3 3 3 3 2 3 3 3 3 3 4 3 3 3 3 3 3 4 5 5 5 5 5 4 4 4
8 9 8 8 7 7 7 7 7 7 6 6 6 6 5 5 5 4 4 4 3 3 3 3 3 3 3 3 3 3 3 3 3 3 3 4 4 4 4 5 5 5 5 5
10 9 8 8 8 7 6 7 7 7 6 6 6 6 6 5 5 5 4 4 3 4 4 4 4 3 3 3 3 3 3 4 4 3 3 3 4 3 5 4 4 5 5 5
9 8 7 7 7 8 8 8 7 7 7 6 6 6 6 6 5 5 5 4 4 4 4 4 4 3 3 3 4 3 3 3 3 3 3 3 3 3 2 3 3 4 4 5
10 8 9 9 9 9 9 9 8 7 7 6 6 5 5 5 5 5 5 5 5 5 5 4 4 4 4 3 3 4 3 3 3 3 3 3 3 3 3 2 2 3 3 3
9 8 10 10 9 9 8 8 7 7 6 6 5 5 5 5 5 6 6 6 5 5 5 5 4 4 4 3 3 4 4 3 4 3 3 3 3 4 4 4 3 3 3 3
12 11 11 10 9 8 7 6 6 6 6 6 5 5 5 5 6 6 6 5 5 5 5 5 5 5 4 3 4 4 4 3 3 3 3 3 3 3 3 4 3 3 2 2
10 9 9 10 10 9 8 8 8 7 6 6 6 6 6 6 6 6 5 4 5 6 5 5 5 5 4 4 4 4 3 3 4 3 3 3 3 3 3 3 3 3 3 2
9 10 10 10 10 10 9 9 8 8 7 7 6 6 5 5 5 5 5 5 5 6 6 5 5 4 4 4 4 4 3 3 4 4 3 3 3 3 3 3 3 3 3 2
11 11 10 10 9 9 9 9 8 8 7 6 6 5 6 6 6 6 6 5 5 5 5 5 4 4 4 4 4 4 3 3 3 3 3 3 3 3 3 3 3 3 2 1
8 8 8 8 8 8 8 8 8 7 6 6 6 6 6 6 6 6 5 5 6 6 5 4 4 4 5 5 4 4 4 3 4 4 4 3 3 3 3 3 2 2 2 1
6 6 6 6 6 7 7 7 7 6 6 6 6 6 6 6 6 6 6 6 6 5 5 5 4 4 5 4 4 4 4 4 4 4 4 4 4 3 3 3 3 2 2 2
6 6 6 6 6 6 6 6 6 6 5 6 6 7 7 7 6 6 5 6 6 5 5 4 4 4 4 3 4 4 4 4 4 4 4 4 4 4 3 3 3 3 2 2
5 5 5 6 5 5 5 5 5 5 5 6 6 7 6 6 6 6 7 5 5 4 4 4 4 4 3 3 3 4 4 4 4 4 4 4 4 4 4 3 3 2 2 2
4 4 5 5 4 4 4 4 4 4 5 6 6 7 7 6 6 6 6 4 4 4 4 4 3 4 4 4 4 4 4 4 4 4 3 3 3 3 3 3 3 2 2 2
4 4 4 3 3 3 3 3 3 3 4 5 5 6 6 5 5 5 5 3 4 4 4 4 4 4 4 4 4 4 4 4 3 3 3 3 3 3 3 3 3 2 2 2
4 3 3 3 3 3 3 3 3 3 3 3 4 5 5 5 5 4 4 4 4 4 4 4 5 5 4 4 4 4 4 4 3 3 3 3 3 3 3 3 3 2 2 2
3 3 3 3 3 2 2 2 2 3 3 3 3 3 3 3 3 4 3 4 4 4 3 3 4 4 3 3 3 3 3 3 3 3 3 3 3 3 3 3 3 3 3 2
3 3 2 2 2 2 2 2 2 3 3 3 3 3 3 3 3 3 3 3 3 3 3 3 3 3 3 3 2 2 2 2 2 2 3 3 3 3 3 4 3 3 3 3
Wind_Direction
268 277 272 269 263 250 249 258 264 269 270 277 276 270 270 264 255 260 267 271 271 277 285 283 296 302 299 289 277 257 241 232 225 219 216 217 220 219 221 226 231 229 228 228
258 260 264 268 263 254 251 255 258 264 268 275 278 271 264 259 250 254 264 269 274 278 282 282 290 290 285 284 273 265 251 243 229 222 218 217 216 216 218 219 228 229 230 232
260 262 273 264 256 244 241 245 252 259 267 268 267 264 264 260 251 259 273 280 277 277 278 281 276 278 279 280 272 266 260 253 238 226 220 217 213 210 215 220 225 231 232 234
263 259 253 273 329 254 253 257 255 262 271 269 273 277 272 261 259 273 286 289 287 285 282 281 279 275 274 271 264 260 261 258 251 231 223 219 216 214 221 226 227 232 233 233
245 257 269 265 249 243 256 267 262 262 269 266 272 277 269 260 267 283 292 295 296 291 285 281 280 272 265 265 263 257 256 257 254 240 225 223 221 220 223 227 229 234 235 232
239 255 264 275 178 262 268 262 261 274 276 258 253 267 279 281 283 289 296 302 301 294 288 282 283 274 261 262 263 267 270 265 260 248 228 225 226 224 225 228 230 234 237 233
241 253 263 272 155 213 249 297 326 287 282 256 259 289 314 305 290 293 297 302 300 293 286 285 280 268 262 268 275 281 281 277 267 256 237 227 223 220 220 227 235 237 238 236
236 246 252 152 182 238 293 328 303 290 282 268 280 297 300 295 286 283 285 290 290 286 294 295 281 272 274 280 291 291 283 276 267 259 243 225 219 221 223 223 229 238 239 239
240 255 289 223 243 276 295 293 293 288 287 277 277 281 281 280 279 274 272 273 274 273 290 297 293 288 290 297 295 287 278 278 272 262 249 230 221 217 221 224 225 233 237 241
256 259 266 259 257 268 277 283 288 283 278 273 274 275 274 275 278 276 271 271 274 273 279 288 293 288 289 291 284 279 279 275 267 255 251 238 226 224 222 225 227 233 237 239
255 264 269 257 254 264 275 283 284 280 270 269 269 269 269 271 272 273 273 271 268 267 271 279 283 286 289 281 273 274 272 269 265 255 252 251 237 235 235 237 240 240 238 239
254 252 257 268 270 267 267 273 273 272 272 266 257 257 262 267 268 267 267 266 267 269 272 277 279 284 282 271 264 262 267 270 266 255 245 245 243 231 217 238 262 266 267 264
258 264 271 278 281 271 267 270 270 266 264 263 258 254 256 264 267 266 263 260 259 264 268 271 275 277 277 265 259 256 262 266 260 255 243 237 239 237 238 235 224 235 236 248
247 255 264 266 271 270 269 270 268 265 262 258 256 253 254 260 268 267 264 264 263 262 262 264 268 274 275 264 261 263 260 263 260 252 244 238 238 240 236 239 245 240 212 211
246 250 257 266 268 266 264 260 257 258 256 257 254 250 250 253 263 271 272 267 262 260 261 262 267 275 272 256 251 259 264 264 259 255 245 239 237 236 235 232 238 238 233 203
247 250 251 255 258 256 252 249 251 254 253 253 254 253 252 255 261 269 272 263 258 260 260 259 262 268 265 252 247 250 256 269 268 255 245 240 235 233 235 233 229 230 232 230
244 249 248 252 253 251 249 249 250 252 252 250 251 252 251 252 259 264 266 262 260 260 260 260 263 263 257 251 245 248 249 246 250 253 248 244 240 238 240 237 233 233 233 222
247 249 247 248 250 251 252 252 252 252 250 249 251 249 243 244 252 259 262 261 260 261 264 268 267 260 253 248 245 246 245 244 246 247 247 246 249 249 245 234 227 230 235 203
253 253 254 252 250 248 250 253 254 250 247 242 239 241 241 245 251 256 257 256 256 259 263 265 267 254 248 245 245 239 239 240 244 247 244 242 242 240 233 231 229 227 222 215
256 257 258 259 255 249 247 250 252 250 244 236 234 238 243 247 248 249 250 253 254 259 261 260 253 249 246 240 235 238 238 238 240 241 238 239 241 235 228 226 222 215 213 216
264 260 257 257 257 254 252 249 244 241 240 232 232 237 243 247 246 246 247 254 258 260 260 252 248 249 245 245 232 237 238 241 241 237 236 241 240 234 227 221 215 208 200 192
267 262 258 256 255 257 255 249 241 238 236 235 237 241 244 245 243 244 246 251 256 247 248 242 243 245 248 246 231 233 235 236 236 233 232 234 235 231 223 214 207 204 200 192
267 265 262 258 256 260 260 251 241 237 237 237 237 239 241 244 242 243 249 250 250 243 246 243 250 241 238 235 231 233 236 236 234 229 228 224 221 218 215 210 206 196 191 191
267 268 269 267 259 252 251 254 255 247 244 247 246 245 246 247 247 245 254 247 243 239 242 243 241 236 233 233 229 228 230 230 228 224 222 218 213 209 207 203 198 185 182 191
261 261 255 243 242 247 248 252 258 255 250 252 255 253 250 246 247 245 248 241 233 234 244 239 229 225 226 230 225 226 227 225 221 214 210 208 204 200 197 193 187 180 180 187
258 258 252 248 251 248 242 238 247 253 252 256 264 262 257 251 247 245 243 235 230 237 245 236 222 216 223 224 225 224 222 217 212 209 203 202 202 199 195 191 187 188 189 187
264 262 254 249 247 242 241 241 247 254 255 256 268 270 263 253 246 240 237 232 226 225 226 225 220 216 217 214 211 209 207 206 204 199 199 198 198 196 192 187 183 181 180 179
Height
1507 1507 1508 1508 1507 1507 1506 1502 1501 1497 1496 1495 1496 1499 1501 1502 1503 1503 1503 1503 1503 1502 1502 1501 1501 1500 1499 1499 1499 1499 1499 1500 1500 1501 1501 1502 1503 1503 1504 1505 1506 1507 1507 1508
1507 1507 1507 1506 1503 1503 1502 1501 1499 1497 1496 1495 1496 1498 1499 1500 1501 1501 1501 1501 1501 1500 1499 1498 1498 1497 1497 1497 1497 1497 1497 1497 1497 1498 1498 1498 1499 1500 1501 1501 1502 1503 1504 1504
1504 1505 1506 1502 1496 1497 1497 1496 1495 1494 1492 1493 1494 1496 1497 1498 1498 1499 1499 1498 1498 1497 1497 1496 1495 1495 1494 1493 1494 1494 1494 1494 1494 1494 1495 1495 1496 1497 1497 1498 1499 1499 1500 1500
1504 1506 1507 1494 1493 1494 1494 1493 1492 1491 1492 1493 1494 1494 1495 1496 1496 1496 1496 1496 1495 1495 1494 1494 1493 1492 1491 1491 1491 1491 1490 1490 1491 1491 1491 1492 1492 1493 1493 1495 1495 1495 1496 1496
1503 1501 1495 1493 1493 1494 1494 1492 1491 1490 1491 1492 1492 1492 1492 1493 1494 1494 1494 1493 1493 1492 1491 1490 1490 1489 1488 1488 1488 1488 1487 1487 1487 1487 1487 1488 1488 1489 1490 1491 1491 1491 1492 1492
1502 1502 1497 1490 1491 1493 1494 1490 1489 1489 1490 1490 1491 1489 1488 1490 1491 1491 1491 1491 1490 1489 1488 1487 1487 1486 1486 1485 1485 1484 1484 1484 1484 1484 1484 1484 1485 1485 1486 1487 1487 1488 1488 1488
1499 1497 1489 1489 1492 1494 1495 1488 1488 1488 1489 1489 1489 1488 1489 1488 1488 1488 1488 1488 1487 1486 1486 1485 1484 1484 1483 1482 1482 1481 1481 1480 1480 1480 1480 1480 1481 1481 1482 1483 1483 1484 1484 1484
1494 1495 1491 1489 1491 1491 1489 1488 1488 1488 1488 1487 1487 1487 1487 1486 1486 1486 1485 1485 1485 1484 1483 1483 1482 1481 1480 1479 1479 1478 1477 1477 1476 1476 1476 1477 1477 1477 1478 1479 1479 1480 1480 1480
1488 1487 1486 1487 1488 1488 1488 1488 1487 1487 1486 1486 1485 1485 1484 1484 1483 1483 1482 1482 1482 1481 1480 1479 1479 1478 1477 1477 1476 1475 1474 1474 1473 1473 1473 1473 1474 1474 1475 1475 1475 1476 1476 1476
1486 1483 1485 1485 1485 1486 1486 1486 1485 1485 1484 1484 1483 1482 1482 1481 1480 1480 1479 1479 1479 1478 1477 1476 1476 1475 1474 1474 1473 1472 1471 1471 1470 1470 1470 1470 1470 1470 1471 1471 1471 1471 1472 1472
1482 1482 1483 1482 1482 1483 1483 1482 1481 1481 1481 1480 1479 1479 1479 1478 1477 1477 1476 1476 1475 1475 1474 1474 1473 1472 1471 1471 1470 1470 1469 1468 1467 1467 1466 1466 1466 1466 1466 1467 1467 1467 1468 1468
1477 1477 1478 1478 1478 1479 1479 1478 1478 1477 1476 1476 1476 1476 1475 1475 1474 1474 1473 1473 1472 1472 1472 1471 1470 1469 1468 1468 1467 1467 1466 1465 1464 1463 1463 1463 1462 1463 1462 1463 1463 1463 1464 1464
1474 1475 1475 1475 1475 1475 1475 1474 1474 1474 1473 1473 1472 1472 1472 1471 1471 1471 1470 1469 1469 1469 1468 1467 1467 1466 1465 1464 1464 1463 1463 1462 1461 1460 1460 1459 1459 1459 1459 1459 1459 1459 1459 1460
1471 1472 1471 1471 1471 1470 1470 1470 1470 1469 1469 1469 1469 1468 1468 1468 1467 1467 1466 1466 1465 1465 1465 1464 1463 1462 1462 1461 1460 1460 1459 1459 1458 1457 1456 1456 1456 1455 1455 1455 1455 1455 1455 1456
1466 1467 1467 1466 1466 1466 1465 1465 1465 1465 1465 1465 1465 1464 1464 1464 1464 1463 1462 1462 1461 1461 1460 1460 1459 1458 1458 1458 1457 1456 1456 1455 1454 1454 1453 1453 1452 1452 1452 1452 1452 1452 1452 1452
1460 1461 1461 1461 1461 1461 1461 1461 1460 1460 1460 1460 1460 1460 1460 1460 1460 1459 1458 1458 1457 1456 1456 1455 1455 1455 1454 1454 1453 1453 1452 1451 1451 1450 1449 1449 1449 1448 1448 1448 1448 1448 1448 1448
1455 1455 1455 1455 1455 1455 1455 1455 1455 1455 1455 1455 1455 1455 1455 1455 1455 1454 1454 1454 1453 1453 1452 1451 1451 1450 1450 1450 1449 1449 1449 1448 1447 1446 1446 1446 1445 1445 1445 1445 1445 1445 1445 1445
1449 1449 1449 1449 1449 1449 1449 1450 1450 1450 1450 1450 1451 1451 1450 1450 1450 1450 1450 1449 1449 1448 1448 1447 1447 1446 1446 1446 1446 1445 1445 1444 1444 1443 1443 1442 1442 1442 1441 1441 1442 1441 1441 1442
1443 1443 1444 1444 1444 1444 1444 1444 1444 1445 1445 1445 1445 1445 1445 1446 1446 1445 1445 1445 1444 1443 1443 1443 1442 1442 1442 1442 1442 1441 1441 1440 1440 1440 1439 1439 1438 1438 1438 1438 1438 1438 1438 1438
1438 1438 1438 1438 1438 1439 1439 1439 1439 1439 1439 1440 1440 1440 1441 1441 1441 1441 1440 1440 1439 1438 1438 1438 1438 1438 1438 1437 1437 1437 1436 1436 1436 1435 1435 1435 1435 1434 1435 1435 1435 1435 1435 1435
1433 1433 1433 1433 1433 1433 1434 1434 1434 1433 1434 1435 1435 1435 1436 1436 1436 1436 1435 1435 1434 1434 1434 1434 1434 1433 1433 1433 1433 1432 1432 1432 1432 1431 1431 1431 1431 1431 1431 1431 1431 1432 1432 1432
1429 1429 1429 1429 1428 1428 1429 1429 1428 1428 1429 1429 1430 1430 1431 1431 1431 1431 1431 1430 1430 1430 1429 1429 1429 1429 1429 1429 1428 1428 1428 1428 1427 1427 1427 1427 1427 1428 1428 1428 1428 1428 1429 1429
1426 1425 1425 1425 1425 1424 1424 1424 1424 1424 1424 1424 1425 1425 1425 1426 1426 1426 1425 1426 1425 1425 1425 1425 1425 1424 1424 1424 1424 1424 1424 1424 1423 1424 1424 1424 1424 1424 1424 1425 1425 1425 1425 1426
1422 1422 1422 1421 1421 1421 1420 1420 1420 1420 1420 1420 1420 1421 1421 1421 1421 1421 1421 1421 1421 1421 1421 1420 1420 1420 1420 1420 1420 1420 1420 1419 1420 1420 1420 1420 1420 1421 1421 1421 1422 1422 1422 1423
1419 1419 1418 1418 1418 1417 1417 1416 1416 1416 1416 1416 1416 1416 1416 1416 1416 1416 1416 1416 1416 1416 1416 1416 1416 1416 1416 1416 1416 1416 1416 1416 1416 1416 1416 1417 1417 1417 1417 1418 1418 1419 1420 1420
1416 1415 1415 1415 1415 1415 1414 1414 1414 1413 1413 1413 1413 1413 1412 1412 1412 1412 1412 1411 1411 1412 1412 1412 1412 1412 1412 1412 1412 1412 1412 1412 1412 1413 1413 1413 1413 1414 1414 1415 1416 1416 1417 1418
1413 1413 1412 1412 1412 1412 1412 1411 1411 1410 1410 1410 1410 1409 1409 1408 1408 1408 1408 1407 1407 1408 1408 1408 1408 1408 1408 1408 1408 1408 1409 1409 1409 1409 1410 1410 1410 1411 1411 1412 1413 1414 1414 1415